STARLINK-35322

Last updated on Sun Dec 07 2025 00:02:05 GMT+0000 (Coordinated Universal Time)

1 66332U 25253P 25340.58335648 .00018040 00000+0 43845-3 0 9992 2 66332 43.0010 20.9937 0000986 267.8037 114.9239 15.40675942 5946
UTC large
Height (km)
Speed (km/s)
/
Latitude / Longitude
Inclination (degrees)
Orbital Period (minutes)
Azimuth
Elevation
Range (km)
Doppler Factor

Next 0 passes for location: London (51.5072 / 0.1276)

Sorry there are no passes over London.